Weather History for Burlington, IA

Change the Weather History Date:

Saturday, April 12, 2014

  Actual Average Record
Temperature  
Mean Temperature 70 °F 53 °F  
Max Temperature 83 °F 64 °F 89 °F (1930)
Min Temperature 56 °F 42 °F 20 °F (1957)
Degree Days  
Heating Degree Days 0 13  
Month to date heating degree days 190 178  
Since 1 July heating degree days 6478 5284  
Cooling Degree Days 5 1  
Month to date cooling degree days 5 2  
Year to date cooling degree days 5 4  
Growing Degree Days 18 (Base 50)    
Moisture  
Dew Point 50 °F    
Average Humidity 52    
Maximum Humidity 67    
Minimum Humidity 37    
Precipitation  
Precipitation 0.00 in 0.12 in 1.47 in (2005)
Month to date precipitation 1.34 1.29  
Year to date precipitation 6.88 6.94  
Sea Level Pressure  
Sea Level Pressure 29.75 in    
Wind  
Wind Speed 16 mph (South)    
Max Wind Speed 29 mph    
Max Gust Speed 38 mph    
Visibility 10 miles    
Events      
T = Trace of Precipitation, MM = Missing Value Source: NWS Daily Summary

Daily Weather History Graph

Daily Weather History Graph

Search for Another Location

Airport:

Trip Planner

Search our weather history database for the weather conditions in past years. The results will help you decide how hot, cold, wet, or windy it might be!

Date:

Astronomy

Apr. 12, 2014 Rise Set
Actual Time 6:30 AM CDT 7:40 PM CDT
Civil Twilight 6:02 AM CDT 8:09 PM CDT
Nautical Twilight 5:28 AM CDT 8:42 PM CDT
Astronomical Twilight 4:53 AM CDT 9:18 PM CDT
Moon 5:18 PM CDT (4/12) 4:58 AM CDT (4/12)
Length of Visible Light 14h 07m
Length of Day
13h 10m
Waxing Gibbous, 93% of the Moon is Illuminated
Apr 12
Waxing Gibbous
Apr 15
Full
Apr 22
Last Quarter
Apr 29
New
May 6
First Quarter

Hourly Weather History & Observations

Time (CDT) Temp. Heat Index Dew Point Humidity Pressure Visibility Wind Dir Wind Speed Gust Speed Precip Events Conditions
12:53 AM 59.0 °F - 33.1 °F 38% 29.96 in 10.0 mi South 11.5 mph - N/A   Clear
1:53 AM 59.0 °F - 33.1 °F 38% 29.94 in 10.0 mi South 9.2 mph - N/A   Partly Cloudy
2:53 AM 57.9 °F - 35.1 °F 42% 29.95 in 10.0 mi South 6.9 mph - N/A   Scattered Clouds
3:53 AM 57.9 °F - 34.0 °F 41% 29.92 in 10.0 mi SE 10.4 mph - N/A   Clear
4:53 AM 57.9 °F - 37.0 °F 46% 29.89 in 10.0 mi SE 12.7 mph - N/A   Partly Cloudy
5:53 AM 57.0 °F - 39.9 °F 53% 29.86 in 10.0 mi SSE 15.0 mph - N/A   Clear
6:53 AM 55.9 °F - 43.0 °F 62% 29.86 in 10.0 mi South 10.4 mph - N/A   Clear
7:53 AM 57.9 °F - 46.0 °F 65% 29.87 in 10.0 mi South 11.5 mph - N/A   Clear
8:53 AM 62.1 °F - 50.0 °F 65% 29.86 in 10.0 mi South 12.7 mph - N/A   Clear
9:53 AM 66.9 °F - 53.1 °F 61% 29.82 in 10.0 mi South 17.3 mph - N/A   Clear
10:53 AM 72.0 °F - 55.9 °F 57% 29.80 in 10.0 mi South 17.3 mph - N/A   Mostly Cloudy
11:53 AM 77.0 °F - 57.9 °F 52% 29.77 in 10.0 mi SSW 20.7 mph 28.8 mph N/A   Partly Cloudy
12:03 PM 77.0 °F - 57.9 °F 52% 29.77 in 9.0 mi South 19.6 mph 29.9 mph N/A   Partly Cloudy
12:53 PM 78.1 °F - 57.0 °F 48% 29.73 in 10.0 mi SW 24.2 mph 33.4 mph N/A   Mostly Cloudy
1:53 PM 81.0 °F 81.0 °F 57.0 °F 44% 29.68 in 9.0 mi South 25.3 mph 32.2 mph N/A   Partly Cloudy
2:53 PM 80.1 °F 80.4 °F 57.0 °F 45% 29.66 in 10.0 mi South 26.5 mph 32.2 mph N/A   Mostly Cloudy
3:53 PM 81.0 °F 80.7 °F 55.0 °F 41% 29.64 in 10.0 mi SSW 19.6 mph 31.1 mph N/A   Partly Cloudy
4:53 PM 81.0 °F 80.7 °F 55.0 °F 41% 29.63 in 10.0 mi SSW 17.3 mph - N/A   Clear
5:53 PM 80.1 °F 80.2 °F 55.9 °F 43% 29.61 in 10.0 mi South 13.8 mph - N/A   Partly Cloudy
6:53 PM 78.1 °F - 55.9 °F 46% 29.61 in 10.0 mi South 13.8 mph - N/A   Clear
7:53 PM 75.0 °F - 55.9 °F 51% 29.60 in 10.0 mi South 11.5 mph - N/A   Clear
8:53 PM 73.9 °F - 55.9 °F 53% 29.60 in 10.0 mi South 12.7 mph - N/A   Clear
9:53 PM 73.0 °F - 55.9 °F 55% 29.59 in 10.0 mi South 17.3 mph - N/A   Clear
10:53 PM 71.1 °F - 55.9 °F 59% 29.58 in 10.0 mi South 11.5 mph - N/A   Clear
11:53 PM 71.1 °F - 55.0 °F 57% 29.61 in 10.0 mi SSW 16.1 mph 24.2 mph N/A   Partly Cloudy